Погода в Кирсановке

Россия / Оренбургская область     52°30′32″N   52°53′02″E
темп.,
°C
ветер,
м/с
пор.,
м/с
влажн.,
%
обл.,
%
осадки,
мм/ч
давл.,
гПа
погр.,
м
3 марта, ср
ср323:00−3юз81595100 2.1 1006707
02:00−2юз61296100 0.9 1004549
05:00−2юз51097100 1.8 1003413
08:00−2зюз4898100 1.1 1001323
11:00−1з3498100 1.6 1002283
14:000зсз3410094 0.2 1003359
17:00−1зсз469397 0.3 1003477
20:00−4зсз5109295 0.1 1004270
4 марта, чт
чт423:00−9зсз4109468 0.1 1007163
02:00−9зсз5119652 0.0 1007291
05:00−12з499768 0.1 1009150
08:00−14зюз479792 0.0 101096
11:00−10юз5109186 0.1 1010304
14:00−7юз8139389 0.0 1008549
17:00−4юз9149094 0.2 1007907
20:00−3юз101793100 0.4 1005905
5 марта, пт
пт523:000зюз101797100 0.9 1005943
02:000зюз101596100 0.7 1005940
05:00−1юз81490100 0.8 1005787
08:00−2юз81592100 0.1 1005543
11:00−1юз101696100 0.7 1004845
14:000юз101699100 1.1 1003868
17:00+1юз91799100 1.6 1003683
20:00+1зюз71499100 1.9 1005643
6 марта, сб
сб623:00−4сз4893100 2.4 1009248
02:00−10ссз349487 0.0 101281
05:00−13с228892 0.0 101521
08:00−13всв2385100 0.0 101536
11:00−10в3482100 0.0 1014190
14:00−8всв5794100 0.6 1011298
17:00−7св6995100 2.9 1008408
20:00−8ссв3895100 0.7 1008271
7 марта, вс
вс723:00−11ссз479493 0.8 1009118
02:00−13зсз349698 0.0 101064
05:00−16з349674 0.0 101253
08:00−17з359989 0.0 101386
11:00−14зсз589593 0.1 1015280
14:00−12з579193 0.0 1016436
17:00−12з468985 0.0 1016400
20:00−17юз34910 0.0 101632